Notices

What's New in latest Release from April 7th, 2021:

- Updated Glossary, including Speed of Maximum Gust, and Total Hourly Precipitation

- Updated national and regional climate services offices contacts and prices information

- Addition of station inventory lists for 1981-2010, 1971-2000, and 1961-1990 Normals.

If you haven't already, please take our survey and provide feedback about our website: https://eccc.sondage-survey.ca/f/LanguageSelection.aspx?s=442ca660-fcf1-47c0-95a9-59707d6fd709

Hourly Data Report for September 16, 2015

IQALUIT CLIMATE
NUNAVUT

63°44'50.000" N
68°32'40.000" W
33.50 m
2402592
71321
XFB

Download Data

Hourly Data (September 2015)
Hourly Data Report for September 16, 2015
TIME
LST
Temp Definition
°C
Dew Point Definition
°C
Rel Hum Definition
%
Precip. Amount Definition
mm

Wind Dir Definition
10's deg

Wind Spd Definition
km/h
Visibility Definition
km
Stn Press Definition
kPa
Hmdx Definition


Wind Chill Definition


Weather Definition


00:00 3.4 0.0 79 0.0 31 3   101.53     LegendNANA
01:00 3.6 0.6 81 0.0 29 5   101.57     LegendNANA
02:00 3.1 1.1 87 0.0 8 6   101.58     LegendNANA
03:00 2.4 0.6 88 0.0 12 5   101.60     LegendNANA
04:00 2.3 0.7 89 0.0 13 5   101.60     LegendNANA
05:00 1.7 0.3 91 0.0   0   101.63     LegendNANA
06:00 2.0 0.5 90 0.0 16 3   101.65     LegendNANA
07:00 2.6 1.0 89 0.0 18 4   101.65     LegendNANA
08:00 LegendMM -0.3 69 0.0 27 15   101.64     LegendNANA
09:00 4.3 -0.3 72 0.0 26 7   101.66     LegendNANA
10:00 4.8 -0.5 68 0.0 27 8   101.62     LegendNANA
11:00 5.3 -1.1 63 0.0 28 11   101.59     LegendNANA
12:00 5.2 -0.8 65 0.0 27 4   101.55     LegendNANA
13:00 4.6 0.0 72 0.0 16 7   101.50     LegendNANA
14:00 5.0 0.7 74 0.0 16 5   101.45     LegendNANA
15:00 5.1 0.8 74 0.0 14 3   101.44     LegendNANA
16:00 4.1 1.2 82 0.0 21 9   101.44     LegendNANA
17:00 3.6 1.1 84 0.0 18 4   101.41     LegendNANA
18:00 3.0 1.1 87 0.0 35 3   101.41     LegendNANA
19:00 2.6 1.0 90 0.0 30 5   101.39     LegendNANA
20:00 2.4 1.1 91 0.0 33 8   101.36     LegendNANA
21:00 1.6 0.2 90 0.0 30 7   101.32     LegendNANA
22:00 1.4 0.2 92 0.0 35 2   101.29     LegendNANA
23:00 1.5 0.5 93 0.0 33 3   101.25     LegendNANA

Notes on Data Quality.

Legend

  • E = Estimated
  • M = Missing
  • NA = Not Available*
  • [empty] = Indicates an unobserved value
Date modified: